[[{"header":{"parameterUnit":"m.s-1","parameterCategory":1,"la1":30.2991,"la2":30.254,"lo1":-89.0895,"lo2":-89.0444,"dy":0.0017,"dx":0.0017,"nx":28,"ny":28,"refTime":"2025-03-10T09:00:00:Z","depth":0,"parameterNumber":2,"parameterNumberName":"U-component_of_WINDS"},"data":[0,0,0,0,0,0,0,0,0,0,0,0,0,0,0,0,0,0,0,0,0,0,0,0,0,0,0,0,0,0,0,0,0,0,0,0,0,0,0,0,0,0,0,0,0,0,0,0,0,0,0,0,0,0,0,0,0,0,0.7911,0.7914,0,0.812,0.8122,0.8125,0.8209,0.8209,0.8209,0.8208,0.8425,0.8431,0.8438,0,0,0,0,0,0,0,0,0,0,0,0,0,0.7591,0.7596,0.7911,0.7914,0.7916,0.8119,0.8122,0.8125,0.821,0.8209,0.8208,0.8208,0.8423,0.8431,0.8438,0,0,0,0,0,0,0,0,0,0,0,0,0,0.7758,0.7598,0.7911,0.7983,0.7991,0.8119,0.8122,0.8126,0.821,0.8209,0.8208,0.8208,0.8421,0.843,0.8439,0.8511,0,0,0.8468,0.8472,0,0,0,0,0,0,0,0,0.7748,0.7769,0.797,0.7978,0.7988,0.8138,0.8089,0.8255,0.821,0.8127,0.8208,0.8207,0.8331,0.8347,0.8388,0.8522,0.8531,0.8469,0.8474,0.8478,0.8481,0,0,0,0,0,0,0,0.7736,0.7761,0.7994,0.7973,0.7984,0.8006,0.8029,0.8121,0.823,0.8134,0.8141,0.8164,0.8335,0.8379,0.8394,0.8534,0.8468,0.8477,0.8482,0.8486,0.8739,0.8741,0,0,0,0,0,0,0.7712,0.7751,0.7987,0.8,0.7864,0.8013,0.8038,0.8091,0.823,0.825,0.8164,0.8167,0.8363,0.8383,0.8402,0.8496,0.8478,0.8487,0.8492,0.8738,0.874,0.8741,0,0,0,0,0,0,0.7705,0.7733,0.7979,0.7877,0.791,0.8019,0.8077,0.8095,0.8139,0.8253,0.8273,0.8188,0.8363,0.8389,0.8484,0.8505,0.8491,0.85,0.8737,0.8739,0.874,0.8685,0,0,0,0,0,0,0.7696,0.773,0.7757,0.7877,0.7915,0.8056,0.8078,0.81,0.8154,0.816,0.828,0.83,0.8365,0.8469,0.8493,0.8518,0.8507,0.8736,0.8738,0.874,0.8685,0.8685,0.8684,0,0,0,0,0,0.7684,0.7734,0.7758,0.7786,0.7952,0.8057,0.8079,0.8151,0.8155,0.8185,0.8258,0.8296,0.8499,0.8478,0.8506,0.8533,0.8735,0.8737,0.874,0.8686,0.8685,0.8684,0,0,0,0,0,0,0.7614,0.7751,0.7779,0.7869,0.795,0.8071,0.8109,0.8148,0.8231,0.8233,0.8321,0.8347,0.8435,0.8494,0.8469,0.8612,0.862,0.8628,0.857,0.857,0.8569,0.8553,0.8515,0,0,0,0,0,0.7608,0.7681,0.7797,0.7865,0.7905,0.8,0.8048,0.8097,0.8186,0.8221,0.8302,0.8387,0.8471,0.8524,0.8606,0.8695,0.8723,0.8728,0.8727,0.8726,0.8732,0.8784,0.8788,0.8749,0.8749,0.8749,0,0,0.7599,0.7683,0.7723,0.7853,0.7922,0.7997,0.8028,0.8106,0.8162,0.8233,0.8328,0.839,0.8491,0.8583,0.8628,0.8635,0.8749,0.8729,0.8727,0.8734,0.8787,0.879,0.8794,0.8751,0.8751,0.875,0,0,0.7619,0.7689,0.7754,0.7823,0.7926,0.799,0.8005,0.812,0.8164,0.826,0.8315,0.8385,0.8526,0.8596,0.865,0.8699,0.8737,0.8724,0.8719,0.8769,0.8772,0.8776,0.8793,0.8799,0.8729,0.8729,0.8729,0,0.7594,0.7707,0.7783,0.7857,0.7914,0.7981,0.8048,0.8111,0.8237,0.8275,0.8281,0.8461,0.8534,0.8644,0.8655,0.8697,0.8719,0.871,0.8766,0.877,0.8774,0.8792,0.8798,0.8727,0.8727,0.8727,0.8727,0,0.7672,0.7749,0.779,0.7908,0.797,0.804,0.8128,0.8181,0.8225,0.8288,0.8386,0.8476,0.8579,0.8609,0.8653,0.8726,0.8727,0.8748,0.8758,0.8774,0.8792,0.88,0.8723,0.8724,0.8725,0.8725,0,0,0.7652,0.7813,0.7826,0.7882,0.8002,0.8064,0.8138,0.8238,0.8282,0.8367,0.8432,0.8551,0.8572,0.8633,0.8686,0.873,0.8764,0.8747,0.875,0.8747,0.885,0.8833,0.884,0.879,0.8792,0.8793,0.8842,0,0.7689,0.7823,0.7894,0.7999,0.8073,0.8138,0.8204,0.8285,0.8346,0.8419,0.8488,0.857,0.8591,0.8629,0.8675,0.8749,0.8785,0.8747,0.8853,0.8856,0.8825,0.885,0.8832,0.8873,0.8849,0.8851,0.8852,0,0.7749,0.7832,0.7944,0.8056,0.809,0.8147,0.8244,0.8313,0.8407,0.8449,0.8518,0.857,0.8653,0.8657,0.8773,0.8745,0.8793,0.8836,0.884,0.8852,0.8854,0.8863,0.8889,0.8895,0.8864,0.8863,0.8862,0,0.7724,0.7864,0.795,0.7995,0.8128,0.8167,0.8224,0.8318,0.8374,0.846,0.8497,0.8592,0.8644,0.8717,0.8794,0.879,0.8903,0.8913,0.8941,0.8939,0.8961,0.8959,0.8995,0.8992,0.8992,0.8992,0.8991,0,0.7757,0.7823,0.794,0.7992,0.8069,0.8151,0.8225,0.8288,0.8371,0.8438,0.8501,0.8563,0.8662,0.8736,0.8798,0.8885,0.8908,0.8945,0.896,0.8939,0.8934,0.8971,0.897,0.8993,0.8993,0.8993,0.8992,0,0.7742,0.7823,0.792,0.8038,0.807,0.8121,0.8223,0.8277,0.8342,0.8426,0.8451,0.8553,0.8644,0.8729,0.8851,0.8892,0.898,0.9,0.8947,0.8956,0.8979,0.8976,0.904,0.9053,0.9041,0.9041,0.9041,0,0.7757,0.7809,0.7933,0.7982,0.8038,0.8116,0.8173,0.8257,0.8314,0.8426,0.8467,0.8563,0.8644,0.8787,0.8873,0.8967,0.899,0.9006,0.9004,0.8982,0.8991,0.8986,0.8992,0.9005,0.9004,0.9004,0.9004,0,0.7777,0.7814,0.7893,0.7987,0.8053,0.8131,0.8211,0.8248,0.8347,0.8408,0.8502,0.8564,0.8689,0.8783,0.8887,0.8949,0.8993,0.9004,0.9015,0.8994,0.8961,0.898,0.8944,0.9002,0.9002,0.9002,0.9002,0.9002,0.7778,0.7827,0.7922,0.8009,0.8078,0.8152,0.8208,0.828,0.8359,0.8466,0.8511,0.8606,0.8702,0.8845,0.8906,0.8983,0.8993,0.9009,0.9013,0.9016,0.9012,0.8949,0.9002,0.9003,0.9003,0.9003,0.9003,0,0.7801,0.7865,0.7944,0.8054,0.8122,0.8157,0.8248,0.8303,0.8385,0.847,0.8548,0.8656,0.8749,0.8842,0.894,0.8984,0.9007,0.9007,0.9004,0.9018,0.8998,0.8978,0.8986,0.8986,0.8986,0.8986,0.8986,0.8986,0.782,0.7907,0.7956,0.8077,0.8142,0.8235,0.8284,0.8353,0.8421,0.8538,0.8614,0.8675,0.8764,0.8869,0.8955,0.8981,0.9014,0.9008,0.9039,0.9019,0.9019,0.902,0.9002,0.9015,0.9015,0.9053,0.9054,0.9054]},{"header":{"parameterUnit":"m.s-1","parameterCategory":1,"la1":30.2991,"la2":30.254,"lo1":-89.0895,"lo2":-89.0444,"dy":0.0017,"dx":0.0017,"nx":28,"ny":28,"refTime":"2025-03-10T09:00:00:Z","depth":0,"parameterNumber":3,"parameterNumberName":"V-component_of_WINDS"},"data":[0,0,0,0,0,0,0,0,0,0,0,0,0,0,0,0,0,0,0,0,0,0,0,0,0,0,0,0,0,0,0,0,0,0,0,0,0,0,0,0,0,0,0,0,0,0,0,0,0,0,0,0,0,0,0,0,0,0,3.5381,3.5382,0,3.5448,3.5449,3.545,3.5443,3.5442,3.5441,3.544,3.5501,3.5504,3.5506,0,0,0,0,0,0,0,0,0,0,0,0,0,3.5239,3.5242,3.5381,3.5382,3.5383,3.5448,3.5449,3.545,3.5443,3.5442,3.5441,3.544,3.55,3.5504,3.5507,0,0,0,0,0,0,0,0,0,0,0,0,0,3.5303,3.5243,3.5381,3.5388,3.5389,3.5448,3.5449,3.545,3.5444,3.5442,3.5441,3.5439,3.5499,3.5503,3.5507,3.5562,0,0,3.5519,3.5521,0,0,0,0,0,0,0,0,3.5299,3.5308,3.5386,3.5387,3.5389,3.5436,3.5422,3.5487,3.5444,3.5423,3.544,3.5438,3.548,3.5486,3.5501,3.5564,3.5567,3.5519,3.5522,3.5523,3.5524,0,0,0,0,0,0,0,3.5295,3.5305,3.5407,3.5387,3.5389,3.5385,3.5392,3.5434,3.5459,3.5424,3.5424,3.5433,3.5481,3.5498,3.5503,3.5568,3.5519,3.5523,3.5525,3.5526,3.5679,3.568,0,0,0,0,0,0,3.529,3.5302,3.5405,3.541,3.534,3.5388,3.5397,3.5422,3.5459,3.5463,3.5434,3.5432,3.5492,3.5498,3.5505,3.5572,3.5523,3.5527,3.5529,3.5677,3.5679,3.5681,0,0,0,0,0,0,3.5287,3.53,3.5403,3.5356,3.5369,3.5393,3.5421,3.5424,3.5441,3.5466,3.5469,3.5447,3.5491,3.5499,3.5548,3.5573,3.5529,3.5532,3.5675,3.5678,3.568,3.5705,0,0,0,0,0,0,3.5283,3.5299,3.5321,3.5356,3.5371,3.5447,3.5423,3.5427,3.5449,3.5447,3.5479,3.5483,3.549,3.5542,3.5552,3.5578,3.5535,3.5673,3.5676,3.5679,3.5702,3.5708,3.5713,0,0,0,0,0,3.5278,3.5324,3.5323,3.5335,3.5401,3.5449,3.5457,3.5467,3.5451,3.5473,3.5489,3.5482,3.5569,3.5547,3.5558,3.5586,3.5671,3.5675,3.5679,3.5699,3.5707,3.5713,0,0,0,0,0,0,3.5288,3.5329,3.5328,3.5387,3.5415,3.5448,3.5476,3.5474,3.5505,3.5502,3.551,3.5517,3.5567,3.5581,3.5556,3.564,3.5618,3.5624,3.563,3.5637,3.5642,3.5638,3.5538,0,0,0,0,0,3.5298,3.5337,3.5368,3.5417,3.5432,3.5451,3.5472,3.5478,3.5506,3.5517,3.5536,3.5562,3.5595,3.5616,3.5648,3.5704,3.571,3.5728,3.5733,3.5738,3.5743,3.5773,3.5781,3.5694,3.5694,3.5694,0,0,3.5317,3.5344,3.5367,3.542,3.5442,3.548,3.5461,3.5501,3.5528,3.5522,3.5571,3.5585,3.5614,3.5666,3.569,3.568,3.5769,3.5743,3.5746,3.5749,3.5778,3.5786,3.5794,3.5696,3.5696,3.5695,0,0,3.5372,3.5397,3.5441,3.5464,3.5499,3.5512,3.5522,3.5556,3.5566,3.5615,3.5611,3.5642,3.5699,3.572,3.5738,3.5801,3.5795,3.581,3.584,3.5869,3.5876,3.5882,3.5905,3.5913,3.5815,3.5815,3.5816,0,3.5391,3.545,3.5462,3.5504,3.5527,3.5525,3.5569,3.5589,3.5632,3.5646,3.5634,3.5706,3.5725,3.5783,3.5798,3.5813,3.5824,3.5807,3.5875,3.5881,3.5887,3.5908,3.5917,3.5817,3.5817,3.5817,3.5817,0,3.5472,3.5513,3.5543,3.5588,3.5613,3.5655,3.5672,3.5696,3.5698,3.5712,3.5761,3.5784,3.582,3.5834,3.5836,3.5892,3.5884,3.5873,3.5851,3.5897,3.5917,3.5925,3.582,3.5819,3.5818,3.5818,0,0,3.5535,3.5587,3.5598,3.5618,3.5657,3.5687,3.5728,3.5766,3.5787,3.5815,3.5849,3.5897,3.5888,3.5908,3.5912,3.5938,3.5986,3.5924,3.5925,3.5935,3.6049,3.6057,3.6067,3.5983,3.5985,3.5986,3.6046,0,3.5595,3.5671,3.5683,3.5748,3.5786,3.5785,3.582,3.5846,3.5859,3.589,3.5903,3.5938,3.5923,3.5935,3.5961,3.5975,3.6009,3.5971,3.6013,3.6014,3.6007,3.6077,3.6086,3.6142,3.6054,3.6056,3.6057,0,3.5674,3.5708,3.5779,3.5813,3.5829,3.5861,3.5897,3.5927,3.5956,3.5964,3.5987,3.5988,3.6028,3.6004,3.6058,3.6032,3.6049,3.6059,3.6061,3.6066,3.6039,3.6084,3.616,3.6169,3.6069,3.6068,3.6067,0,3.5714,3.5777,3.5828,3.5845,3.5886,3.5908,3.5925,3.5953,3.5975,3.6006,3.602,3.6053,3.6072,3.6097,3.6106,3.6088,3.616,3.6136,3.6166,3.6166,3.6182,3.6181,3.6263,3.6192,3.6192,3.6192,3.6192,0,3.5779,3.5822,3.5847,3.5878,3.5925,3.5937,3.5983,3.5999,3.6024,3.6056,3.6056,3.6085,3.6096,3.6126,3.6133,3.6177,3.6185,3.6191,3.6193,3.6192,3.6191,3.6204,3.62,3.6194,3.6194,3.6193,3.6193,0,3.5832,3.585,3.5905,3.594,3.595,3.5983,3.6012,3.604,3.6053,3.6094,3.6104,3.6124,3.616,3.6172,3.6215,3.6219,3.6271,3.6268,3.6262,3.6263,3.6292,3.6289,3.6385,3.6398,3.6319,3.632,3.632,0,3.5873,3.5907,3.5946,3.5969,3.5988,3.6025,3.6049,3.6061,3.6085,3.612,3.6144,3.6181,3.6211,3.6269,3.6285,3.6318,3.6316,3.6348,3.6321,3.6319,3.6317,3.6315,3.6319,3.6353,3.6353,3.6354,3.6355,0,3.5943,3.5951,3.5987,3.6026,3.6055,3.6085,3.6114,3.6132,3.6148,3.6174,3.6213,3.6237,3.6282,3.6318,3.6351,3.6366,3.6363,3.6363,3.6372,3.6371,3.6367,3.637,3.6277,3.6361,3.636,3.636,3.6359,3.6359,3.5992,3.6022,3.6055,3.6094,3.6118,3.6145,3.6175,3.6192,3.6226,3.6265,3.6269,3.6311,3.6337,3.6383,3.6399,3.643,3.6421,3.6433,3.6437,3.644,3.6443,3.6362,3.6436,3.6436,3.6436,3.6436,3.6435,0,3.6063,3.6084,3.6121,3.6163,3.6194,3.619,3.6222,3.6247,3.6285,3.6311,3.6342,3.6386,3.642,3.644,3.6474,3.6495,3.6494,3.6504,3.6502,3.6506,3.6448,3.6438,3.6504,3.6504,3.6504,3.6504,3.6504,3.6504,3.6103,3.6155,3.6166,3.6228,3.6248,3.6291,3.631,3.6334,3.6356,3.6406,3.6436,3.6449,3.6472,3.6508,3.6539,3.6544,3.6557,3.6567,3.6571,3.6517,3.651,3.6503,3.6493,3.657,3.657,3.6625,3.6626,3.6626]}]]